[TLELIST] Archives

 

Current TLEs

May 1st 2007 PDT

HST 1 20580U 90037B 07121.24089074 .00000409 00000-0 18923-4 0 8639 2 20580 028.4661 136.2472 0003431 323.1311 036.9043 15.00229830732900 ISS (ZARYA) 1 25544U 98067A 07121.44740928 .00027253 00000-0 16396-3 0 1235 2 25544 051.6353 345.3645 0011011 132.0696 288.9612 15.77433534483391 CXO 1 25867U 99040B 07120.04166667 .00000418 00000-0 00000+0 0 641 2 25867 061.6057 090.3226 6160064 284.9080 355.8163 00.37806072 2074 ____________________________________________________________________ These 2-Line ...Continue Reading

Current TLEs

April 30th 2007 PDT

HST 1 20580U 90037B 07118.91249005 +.00000339 +00000-0 +13426-4 0 08647 2 20580 028.4665 151.4304 0003346 296.3530 063.6714 15.00228434732558 ISS (ZARYA) 1 25544U 98067A 07120.25145955 .00024678 00000-0 14940-3 0 1176 2 25544 051.6357 351.5374 0010773 127.3706 337.6846 15.77361212483200 CXO 1 25867U 99040B 07120.04166667 .00000418 00000-0 00000+0 0 641 2 25867 061.6057 090.3226 6160064 284.9080 355.8163 00.37806072 2074 ____________________________________________________________________ These 2-Line ...Continue Reading

Current TLEs

April 29th 2007 PDT

HST 1 20580U 90037B 07118.51333536 .00000357 00000-0 14893-4 0 8612 2 20580 028.4665 154.0339 0003340 291.1649 068.8584 15.00228429732492 ISS (ZARYA) 1 25544U 98067A 07119.48463729 .00019080 00000-0 11671-3 0 1125 2 25544 051.6365 355.4959 0010683 125.1171 302.6451 15.77319386483088 CXO 1 25867U 99040B 07120.04166667 .00000418 00000-0 00000+0 0 641 2 25867 061.6057 090.3226 6160064 284.9080 355.8163 00.37806072 2074 ____________________________________________________________________ These 2-Line ...Continue Reading

Current TLEs

April 28th 2007 PDT

HST 1 20580U 90037B 07117.44892287 .00000373 00000-0 16091-4 0 8605 2 20580 028.4664 160.9735 0003399 279.3769 080.6437 15.00228106732336 ISS (ZARYA) 1 25544U 98067A 07118.28768716 .00021430 00000-0 12191-3 0 1047 2 25544 051.6335 001.6756 0017239 112.2833 353.4558 15.78733117482899 CXO 1 25867U 99040B 07117.41666667 .00000373 00000-0 00000+0 0 632 2 25867 061.5930 090.3711 6157233 284.9676 358.3858 00.37805850 2068 ____________________________________________________________________ These 2-Line ...Continue Reading

Current TLEs

April 27th 2007 PDT

HST 1 20580U 90037B 07115.85230504 +.00000408 +00000-0 +18814-4 0 08824 2 20580 028.4665 171.3876 0003411 261.4785 098.5415 15.00227615732095 ISS (ZARYA) 1 25544U 98067A 07117.27404056 .00018703 00000-0 10713-3 0 1002 2 25544 051.6342 006.9172 0017378 108.9415 351.9791 15.78686932482736 CXO 1 25867U 99040B 07117.41666667 .00000373 00000-0 00000+0 0 632 2 25867 061.5930 090.3711 6157233 284.9676 358.3858 00.37805850 2068 ____________________________________________________________________ These 2-Line ...Continue Reading

Current TLEs

April 26th 2007 PDT

HST 1 20580U 90037B 07116.25145954 .00000407 00000-0 18764-4 0 8590 2 20580 028.4665 168.7851 0003427 265.6299 094.3900 15.00227812732150 ISS (ZARYA) 1 25544U 98067A 07116.32531372 .00041051 00000-0 23004-3 0 940 2 25544 051.6348 011.8238 0017406 106.0282 359.4426 15.78669240482587 CXO 1 25867U 99040B 07114.79166667 .00000313 00000-0 00000+0 0 628 2 25867 061.5854 090.4289 6153430 285.0284 000.9641 00.37802929 2059 ____________________________________________________________________ These 2-Line ...Continue Reading

Current TLEs

April 25th 2007 PDT

HST 1 20580U 90037B 07114.92094607 .00000394 00000-0 17714-4 0 8588 2 20580 028.4668 177.4680 0003467 251.8653 108.1574 15.00227052731959 ISS (ZARYA) 1 25544U 98067A 07115.31181833 .00020843 00000-0 11626-3 0 854 2 25544 051.6362 017.0611 0015676 107.1792 354.3512 15.79229854482428 CXO 1 25867U 99040B 07114.79166667 .00000313 00000-0 00000+0 0 628 2 25867 061.5854 090.4289 6153430 285.0284 000.9641 00.37802929 2059 ____________________________________________________________________ These 2-Line ...Continue Reading

Current TLEs

April 24th 2007 PDT

HST 1 20580U 90037B 07113.79000735 .00000408 00000-0 18868-4 0 8577 2 20580 028.4670 184.8476 0003567 238.0889 121.9308 15.00226662731781 ISS (ZARYA) 1 25544U 98067A 07114.29848499 .00021652 00000-0 12081-3 0 796 2 25544 051.6357 022.3040 0015806 103.9171 352.7649 15.79188555482264 CXO 1 25867U 99040B 07114.79166667 .00000313 00000-0 00000+0 0 628 2 25867 061.5854 090.4289 6153430 285.0284 000.9641 00.37802929 2059 ____________________________________________________________________ These 2-Line ...Continue Reading

Current TLEs

April 23rd 2007 PDT

HST 1 20580U 90037B 07112.65906989 .00000415 00000-0 19371-4 0 8564 2 20580 028.4674 192.2244 0003781 223.6954 136.3337 15.00226258731617 ISS (ZARYA) 1 25544U 98067A 07113.35024502 .00021756 00000-0 12161-3 0 742 2 25544 051.6363 027.2141 0015764 099.5562 002.7247 15.79147040482118 CXO 1 25867U 99040B 07112.12500000 .00000278 00000-0 00000+0 0 615 2 25867 061.5750 090.4794 6149460 285.1116 357.8557 00.37799735 2047 ____________________________________________________________________ These 2-Line ...Continue Reading

Current TLEs

April 22nd 2007 PDT

HST 1 20580U 90037B 07111.59465798 .00000413 00000-0 19211-4 0 8554 2 20580 028.4674 199.1663 0003788 213.6239 146.4113 15.00225688731452 ISS (ZARYA) 1 25544U 98067A 07111.95668444 .00021496 00000-0 12052-3 0 655 2 25544 051.6359 034.4212 0015966 093.8257 000.9511 15.79084184481891 CXO 1 25867U 99040B 07112.12500000 .00000278 00000-0 00000+0 0 615 2 25867 061.5750 090.4794 6149460 285.1116 357.8557 00.37799735 2047 ____________________________________________________________________ These 2-Line ...Continue Reading
  • This mailing list is a public mailing list - anyone may join or leave, at any time.
  • This mailing list is announce-only.

International Space Station (ISS) / Hubble Space Telescope (HST) / Chandra X-Ray Observatory Orbital Data via EMAIL

Privacy Policy:

Private list